Location: Pensacola
(30.4142°N, 87.2155°W)
Time: 19:16:47
(UTC-05:00)

AO-92 - Visible Passes

Search period start: 06 June 2023 00:00
Search period end: 16 June 2023 00:00
Orbit: 426 x 435 km, 97.3° (Epoch: 06 June)

Date Brightness Start Highest point End Pass type
(mag) Time Alt. Az. Time Alt. Az. Time Alt. Az.
06 Jun ? 23:08:11 10° N 23:08:11 10° N 23:08:13 10° N visible
08 Jun ? 23:18:32 10° N 23:18:32 10° N 23:18:33 10° N visible
13 Jun ? 22:56:40 10° NNE 22:56:40 10° NNE 22:56:44 10° N visible
15 Jun ? 23:06:07 11° N 23:06:07 11° N 23:06:17 10° N visible
